{"data":{"norad_id":67134,"epoch":"2026-09-20T18:48:39.253824Z","epoch_age_seconds":81636,"freshness":"FRESH","line1":"1 67134U 25301B   26263.78378766  .00000849  00000+0  14040-3 0  9995","line2":"2 67134  51.9053 285.4412 0000435  52.1538 307.9464 14.79928030 42763","mean_motion":14.7992803,"eccentricity":4.35e-5,"inclination_deg":51.9053,"raan_deg":285.4412,"arg_perigee_deg":52.1538,"mean_anomaly_deg":307.9464,"bstar":0.0001404,"rev_number":4276,"period_min":97.302028937177,"perigee_km":629.24648383549,"apogee_km":629.85615271918,"semimajor_km":7007.6883182773,"source":"CELESTRAK","updated_at":"2026-09-21T09:00:16.453853Z"}}